Regional Weather Roundup
Issued by NWS

Home | Current Version | Previous Version | Graphics & Text | Print | Product List | Glossary On
Versions: 1 2 3 4 5 6 7 8 9 10 11 12 13 14 15 16 17 18 19 20 21 22 23 24 25 26 27 28 29 30 31 32 33 34 35 36 37 38 39 40 41 42 43 44 45 46 47 48 49 50
000
ASUS44 KMEG 041410
RWRTN
TENNESSEE HOURLY STATE WEATHER ROUNDUP
NATIONAL WEATHER SERVICE MEMPHIS TN
900 AM CDT FRI SEP 04 2015

TNZ002-004-019-021-049-052-054-088>092-041500-
WEST TENNESSEE

CITY           SKY/WX    TMP DP  RH WIND       PRES   REMARKS
MEMPHIS INTL   MOSUNNY   86  71  60 CALM      30.02S HX  91
NWS MEMPHIS      N/A     82 N/A N/A MISG        N/A
JACKSON        SUNNY     79  72  79 E5        30.04R
DYERSBURG      SUNNY     79  73  83 E3        30.04S
UNION CITY     SUNNY     79  75  89 CALM      30.03R
PARIS          SUNNY     79  68  69 E5        30.05S
LEXINGTON      SUNNY     79  72  78 CALM      30.03S
$$

TNZ008-025-027-028-033-062-065-066-041500-
NORTH MIDDLE TENNESSEE

CITY           SKY/WX    TMP DP  RH WIND       PRES   REMARKS
NASHVILLE      SUNNY     82  69  64 CALM      30.06R
CLARKSVILLE    SUNNY     78  69  73 E3        30.05R HAZE
SMYRNA         SUNNY     79  78  96 CALM      30.06S
COOKEVILLE     SUNNY     79  72  78 CALM      30.07S
CROSSVILLE     SUNNY     78  66  66 CALM      30.12R
$$

TNZ061-075-076-078-094-096-097-041500-
SOUTH MIDDLE TENNESSEE

CITY           SKY/WX    TMP DP  RH WIND       PRES   REMARKS
TULLAHOMA      SUNNY     79  68  69 CALM      30.08R
WINCHESTER     SUNNY     79  72  78 CALM      30.06S
MCMINNVILLE    SUNNY     75  75 100 CALM      30.07S
COLUMBIA       SUNNY     79  79 100 CALM      30.04S
SHELBYVILLE    SUNNY     79  73  83 CALM      30.07R
$$

TNZ017-018-042-046-047-041500-
NORTHEAST TENNESSEE

CITY           SKY/WX    TMP DP  RH WIND       PRES   REMARKS
TRI CITIES     SUNNY     72  67  84 VRB3      30.10S HAZE
ELIZABETHTON   SUNNY     73  64  73 CALM      30.10S
$$

TNZ012-013-036-069-073-074-041500-
CENTRAL EAST TENNESSEE

CITY           SKY/WX    TMP DP  RH WIND       PRES   REMARKS
KNOXVILLE      SUNNY     76  68  76 NE3       30.06R
OAK RIDGE      SUNNY     78  68  71 VRB3      30.07S
GATLINBURG     SUNNY     75  66  73 VRB3      30.06S
MORRISTOWN     SUNNY     77  68  73 E3        30.09S
$$

TNZ083-085-099-041500-
SOUTHEAST TENNESSEE

CITY           SKY/WX    TMP DP  RH WIND       PRES   REMARKS
CHATTANOOGA    PTSUNNY   78  69  73 N5        30.05S
$$

SKY/WX REPORTED AS FAIR MEANS FEW OR NO CLOUDS BELOW
12 THOUSAND FEET.



USA.gov is the U.S. government's official web portal to all federal, state and local government web resources and services.